When you browse on this site, cookies collect data to enhance your experience and personalize the content and advertising you see.
Visit our Privacy Policy to learn more. By continuing to use the site, you agree to this use of cookies and data.
  • In Czech Republic
  • List of Countries
  • For 7 days
  • Water Temperature
  • Weather Map
  • Weather Widgets
  • user-avatar
    Login

    Hourly Weather Kaprun

    Today, 3 June, Wednesday

    Time Temperature Precipitation Wind Pressure Humidity
    00:00 +2°C° 0 mm 1 mps 593 mmHg 87%
    01:00 +2°C° 0 mm 1 mps 593 mmHg 86%
    02:00 +2°C° 0 mm 1 mps 593 mmHg 84%
    03:00 +2°C° 0 mm 1 mps 592 mmHg 82%
    04:00 +2°C° 0 mm 1 mps 592 mmHg 80%
    05:00 +4°C° 0 mm 1 mps 593 mmHg 74%
    06:00 +6°C° 0 mm 1 mps 594 mmHg 68%
    07:00 +7°C° 0 mm 0 mps 594 mmHg 62%
    08:00 +10°C° 0 mm 1 mps 595 mmHg 54%
    09:00 +12°C° 0 mm 1 mps 595 mmHg 46%
    10:00 +14°C° 0 mm 1 mps 596 mmHg 38%
    11:00 +14°C° 0 mm 1 mps 596 mmHg 36%
    12:00 +15°C° 0 mm 1 mps 595 mmHg 34%
    13:00 +15°C° 0 mm 1 mps 595 mmHg 31%
    14:00 +15°C° 0.1 mm 1 mps 594 mmHg 35%
    15:00 +14°C° 0.1 mm 1 mps 594 mmHg 39%
    16:00 +14°C° 0.1 mm 1 mps 593 mmHg 43%
    17:00 +12°C° 0.2 mm 1 mps 593 mmHg 53%
    18:00 +11°C° 0.2 mm 1 mps 592 mmHg 64%
    19:00 +9°C° 0.2 mm 1 mps 591 mmHg 74%
    20:00 +8°C° 0 mm 1 mps 590 mmHg 76%
    21:00 +7°C° 0 mm 1 mps 590 mmHg 78%
    22:00 +5°C° 0 mm 2 mps 590 mmHg 80%
    23:00 +5°C° 0 mm 2 mps 589 mmHg 81%

    Tomorrow, 4 June, Thursday

    Time Temperature Precipitation Wind Pressure Humidity
    00:00 +4°C° 0 mm 2 mps 589 mmHg 82%
    01:00 +4°C° 0 mm 2 mps 589 mmHg 83%
    02:00 +4°C° 0 mm 2 mps 588 mmHg 86%
    03:00 +4°C° 0 mm 2 mps 588 mmHg 88%
    04:00 +4°C° 0 mm 2 mps 588 mmHg 90%
    05:00 +5°C° 0 mm 2 mps 588 mmHg 86%
    06:00 +6°C° 0 mm 2 mps 589 mmHg 82%
    07:00 +8°C° 0 mm 1 mps 589 mmHg 78%
    08:00 +9°C° 0.1 mm 2 mps 590 mmHg 73%
    09:00 +10°C° 0.1 mm 2 mps 590 mmHg 68%
    10:00 +13°C° 0.1 mm 2 mps 591 mmHg 63%
    11:00 +13°C° 0.3 mm 2 mps 590 mmHg 64%
    12:00 +13°C° 0.3 mm 2 mps 590 mmHg 65%
    13:00 +12°C° 0.3 mm 3 mps 589 mmHg 67%
    14:00 +11°C° 0.5 mm 3 mps 589 mmHg 71%
    15:00 +10°C° 0.5 mm 3 mps 588 mmHg 75%
    16:00 +9°C° 0.5 mm 3 mps 588 mmHg 80%
    17:00 +8°C° 0.5 mm 3 mps 587 mmHg 83%
    18:00 +7°C° 0.5 mm 3 mps 587 mmHg 86%
    19:00 +5°C° 0.5 mm 3 mps 586 mmHg 89%
    20:00 +6°C° 0.9 mm 2 mps 586 mmHg 92%
    21:00 +5°C° 0.9 mm 2 mps 586 mmHg 94%
    22:00 +5°C° 0.9 mm 1 mps 586 mmHg 96%
    23:00 +5°C° 2.1 mm 1 mps 585 mmHg 97%

    Day after tomorrow, 5 June, Friday

    Time Temperature Precipitation Wind Pressure Humidity
    00:00 +5°C° 2.1 mm 1 mps 585 mmHg 98%
    01:00 +4°C° 2.1 mm 1 mps 584 mmHg 98%
    02:00 +4°C° 3.2 mm 1 mps 584 mmHg 98%
    03:00 +3°C° 3.2 mm 1 mps 584 mmHg 98%
    04:00 +3°C° 3.2 mm 1 mps 584 mmHg 98%
    05:00 +3°C° 2.4 mm 1 mps 584 mmHg 98%
    06:00 +3°C° 2.4 mm 1 mps 584 mmHg 98%
    07:00 +3°C° 2.4 mm 1 mps 584 mmHg 98%
    08:00 +3°C° 2 mm 1 mps 585 mmHg 98%
    09:00 +3°C° 2 mm 1 mps 585 mmHg 98%
    10:00 +3°C° 2 mm 1 mps 586 mmHg 97%
    11:00 +3°C° 1.4 mm 1 mps 586 mmHg 97%
    12:00 +3°C° 1.4 mm 1 mps 586 mmHg 98%
    13:00 +3°C° 1.4 mm 1 mps 586 mmHg 98%
    14:00 +4°C° 0.3 mm 1 mps 587 mmHg 96%
    15:00 +4°C° 0.3 mm 1 mps 587 mmHg 95%
    16:00 +5°C° 0.3 mm 1 mps 587 mmHg 93%
    17:00 +5°C° 0 mm 1 mps 587 mmHg 92%
    18:00 +4°C° 0 mm 0 mps 588 mmHg 92%
    19:00 +4°C° 0 mm 0 mps 588 mmHg 91%
    20:00 +2°C° 0 mm 0 mps 588 mmHg 90%
    21:00 +2°C° 0 mm 1 mps 588 mmHg 90%
    22:00 +1°C° 0 mm 1 mps 588 mmHg 89%
    23:00 +1°C° 0 mm 1 mps 588 mmHg 90%

    6 June, Saturday

    Time Temperature Precipitation Wind Pressure Humidity
    00:00 +1°C° 0 mm 1 mps 588 mmHg 91%
    01:00 -2°C° 0 mm 2 mps 588 mmHg 91%
    02:00 -1°C° 0 mm 2 mps 589 mmHg 92%
    03:00 -1°C° 0 mm 2 mps 589 mmHg 92%
    04:00 -1°C° 0 mm 2 mps 589 mmHg 93%
    05:00 +2°C° 0 mm 2 mps 590 mmHg 89%
    06:00 +3°C° 0 mm 2 mps 591 mmHg 86%
    07:00 +5°C° 0 mm 2 mps 592 mmHg 83%
    08:00 +7°C° 0 mm 2 mps 593 mmHg 79%
    09:00 +8°C° 0 mm 2 mps 593 mmHg 75%
    10:00 +10°C° 0 mm 2 mps 594 mmHg 71%
    11:00 +10°C° 0.1 mm 2 mps 594 mmHg 72%
    12:00 +10°C° 0.1 mm 2 mps 594 mmHg 73%
    13:00 +10°C° 0.1 mm 2 mps 594 mmHg 74%
    14:00 +10°C° 0.3 mm 2 mps 594 mmHg 76%
    15:00 +10°C° 0.3 mm 2 mps 594 mmHg 78%
    16:00 +10°C° 0.3 mm 2 mps 593 mmHg 80%
    17:00 +9°C° 0.6 mm 2 mps 593 mmHg 85%
    18:00 +8°C° 0.6 mm 2 mps 593 mmHg 90%
    19:00 +8°C° 0.6 mm 1 mps 593 mmHg 96%
    20:00 +8°C° 0.5 mm 1 mps 593 mmHg 96%
    21:00 +7°C° 0.5 mm 1 mps 593 mmHg 97%
    22:00 +6°C° 0.5 mm 1 mps 593 mmHg 98%
    23:00 +6°C° 0.5 mm 1 mps 593 mmHg 98%

    7 June, Sunday

    Time Temperature Precipitation Wind Pressure Humidity
    00:00 +6°C° 0.5 mm 1 mps 593 mmHg 98%
    01:00 +6°C° 0.5 mm 1 mps 592 mmHg 98%
    02:00 +6°C° 0.2 mm 1 mps 592 mmHg 98%
    03:00 +5°C° 0.2 mm 0 mps 592 mmHg 98%
    04:00 +4°C° 0.2 mm 0 mps 592 mmHg 98%
    05:00 +5°C° 0.1 mm 0 mps 592 mmHg 97%
    06:00 +5°C° 0.1 mm 0 mps 593 mmHg 97%
    07:00 +7°C° 0.1 mm 1 mps 593 mmHg 96%
    08:00 +7°C° 0.2 mm 1 mps 593 mmHg 95%
    09:00 +7°C° 0.2 mm 1 mps 593 mmHg 95%
    10:00 +8°C° 0.2 mm 1 mps 594 mmHg 94%
    11:00 +8°C° 0.4 mm 1 mps 594 mmHg 93%
    12:00 +7°C° 0.4 mm 2 mps 593 mmHg 92%
    13:00 +8°C° 0.4 mm 2 mps 593 mmHg 91%
    14:00 +9°C° 0.7 mm 1 mps 593 mmHg 91%
    15:00 +9°C° 0.7 mm 1 mps 593 mmHg 91%
    16:00 +9°C° 0.7 mm 1 mps 593 mmHg 91%
    17:00 +9°C° 0.6 mm 1 mps 593 mmHg 93%
    18:00 +8°C° 0.6 mm 1 mps 593 mmHg 96%
    19:00 +7°C° 0.6 mm 1 mps 593 mmHg 98%
    20:00 +7°C° 1.2 mm 1 mps 594 mmHg 98%
    21:00 +6°C° 1.2 mm 1 mps 594 mmHg 98%
    22:00 +5°C° 1.2 mm 1 mps 594 mmHg 99%
    23:00 +5°C° 1 mm 1 mps 594 mmHg 99%

    8 June, Monday

    Time Temperature Precipitation Wind Pressure Humidity
    00:00 +5°C° 1 mm 1 mps 594 mmHg 99%
    01:00 +4°C° 1 mm 1 mps 594 mmHg 99%
    02:00 +4°C° 0.6 mm 1 mps 593 mmHg 99%
    03:00 +4°C° 0.6 mm 1 mps 593 mmHg 98%
    04:00 +4°C° 0.6 mm 1 mps 593 mmHg 98%
    05:00 +4°C° 0.7 mm 1 mps 593 mmHg 98%
    06:00 +4°C° 0.7 mm 1 mps 593 mmHg 98%
    07:00 +4°C° 0.7 mm 1 mps 593 mmHg 98%
    08:00 +4°C° 1 mm 1 mps 594 mmHg 98%
    09:00 +4°C° 1 mm 1 mps 594 mmHg 98%
    10:00 +5°C° 1 mm 1 mps 594 mmHg 98%
    11:00 +5°C° 0.3 mm 1 mps 594 mmHg 97%
    12:00 +5°C° 0.3 mm 1 mps 595 mmHg 97%
    13:00 +5°C° 0.3 mm 2 mps 595 mmHg 96%
    14:00 +5°C° 0.4 mm 2 mps 595 mmHg 96%
    15:00 +4°C° 0.4 mm 2 mps 595 mmHg 96%
    16:00 +4°C° 0.4 mm 2 mps 595 mmHg 96%
    17:00 +4°C° 0.7 mm 1 mps 594 mmHg 96%
    18:00 +4°C° 0.7 mm 1 mps 594 mmHg 97%
    19:00 +3°C° 0.7 mm 1 mps 594 mmHg 98%
    20:00 +3°C° 0.9 mm 1 mps 594 mmHg 98%
    21:00 +3°C° 0.9 mm 1 mps 595 mmHg 98%
    22:00 +3°C° 0.9 mm 1 mps 595 mmHg 98%
    23:00 +3°C° 1.2 mm 1 mps 595 mmHg 98%
    Show more